Location: Borgo
(42.3939°N, 9.2791°E)
Time: 18:29:44
(UTC+00:00)

Feng Yun 1-1 Rocket - Pass Details

Date: 24 January 2021
Orbit: 830 x 933 km, 99.2° (Epoch: 02 March)

Event Time Altitude Azimuth Distance (km) Brightness Sun altitude
Rises 17:38:05 0° 167° (SSE) 3,369 7.3 -13.2°
Reaches altitude 10° 17:40:25 10° 168° (SSE) 2,446 6.6 -13.6°
Maximum altitude 17:45:50 80° 255° (WSW) 869 4.3 -14.6°
Drops below altitude 10° 17:51:26 10° 343° (NNW) 2,518 6.7 -15.6°
Sets 17:53:51 0° 345° (NNW) 3,475 7.4 -16.1°
